User: anonymous   Login
Location: Franzen
(48.6167°N, 15.3833°E)
Time: 11:47:50
(UTC+00:00)
Language:

Meteor 2-16 Rocket - Orbit

View from above orbital plane
View from above orbital plane
View from above satellite
View from above satellite

Ground track
Ground track

The orbit data is extracted from the following two-line orbital elements,

1 18313U 87068B   21170.91859413  .00000023  00000-0  69362-5 0  9992
2 18313  82.5575 308.2323 0010707 146.7373 213.4462 13.84191234709539
Epoch (UTC): 19 June 2021 22:02:46
Eccentricity: 0.0010707
inclination: 82.5575°
perigee height: 941 km
apogee height: 957 km
right ascension of ascending node: 308.2323°
argument of perigee: 146.7373°
revolutions per day: 13.84191234
mean anomaly at epoch: 213.4462°
orbit number at epoch: 70953

The dashed part of the orbit path shows where the satellite is in the earth's shadow,  

DLR